TimeEST,TemperatureF,Dew PointF,Humidity,Sea Level PressureIn,VisibilityMPH,Wind Direction,Wind SpeedMPH,Gust SpeedMPH,PrecipitationIn,Events,Conditions,WindDirDegrees,DateUTC
12:34 AM,37.4,32.0,81,30.00,10.0,ENE,8.1,-,N/A,,Overcast,70,2013-12-05 05:34:00
12:54 AM,37.9,33.1,83,29.99,10.0,ENE,9.2,-,N/A,,Overcast,60,2013-12-05 05:54:00
1:54 AM,39.0,35.1,86,29.96,8.0,East,10.4,-,N/A,,Mostly Cloudy,80,2013-12-05 06:54:00
2:33 AM,39.2,35.6,87,29.95,8.0,East,10.4,-,N/A,,Overcast,90,2013-12-05 07:33:00
2:54 AM,41.0,36.0,82,29.94,8.0,East,11.5,-,N/A,,Overcast,80,2013-12-05 07:54:00
3:54 AM,42.1,37.9,85,29.91,9.0,ENE,8.1,-,N/A,,Overcast,60,2013-12-05 08:54:00
4:54 AM,50.0,44.1,80,29.89,9.0,SE,10.4,-,N/A,,Overcast,140,2013-12-05 09:54:00
5:21 AM,48.2,44.6,87,29.88,9.0,SE,11.5,-,N/A,,Mostly Cloudy,140,2013-12-05 10:21:00
5:45 AM,50.0,44.6,82,29.87,9.0,SE,11.5,-,N/A,,Mostly Cloudy,140,2013-12-05 10:45:00
5:54 AM,50.0,45.0,83,29.87,9.0,SE,10.4,-,N/A,,Overcast,140,2013-12-05 10:54:00
6:22 AM,50.0,44.6,82,29.87,10.0,SE,10.4,-,N/A,,Overcast,140,2013-12-05 11:22:00
6:54 AM,51.1,45.0,80,29.87,10.0,SE,5.8,-,N/A,,Overcast,130,2013-12-05 11:54:00
7:54 AM,52.0,46.0,80,29.85,10.0,South,15.0,24.2,N/A,,Overcast,170,2013-12-05 12:54:00
8:54 AM,54.0,46.9,77,29.86,10.0,South,18.4,31.1,N/A,,Overcast,170,2013-12-05 13:54:00
9:54 AM,55.9,48.0,75,29.87,10.0,SSW,9.2,19.6,N/A,,Overcast,200,2013-12-05 14:54:00
10:54 AM,57.0,48.9,74,29.85,10.0,South,10.4,18.4,N/A,,Overcast,190,2013-12-05 15:54:00
11:54 AM,57.9,50.0,75,29.83,10.0,South,15.0,20.7,N/A,,Overcast,180,2013-12-05 16:54:00
12:54 PM,57.9,50.0,75,29.81,10.0,South,12.7,21.9,N/A,,Overcast,180,2013-12-05 17:54:00
1:54 PM,57.9,50.0,75,29.80,10.0,South,12.7,-,N/A,,Overcast,170,2013-12-05 18:54:00
2:54 PM,57.9,50.0,75,29.80,10.0,South,9.2,-,N/A,,Overcast,190,2013-12-05 19:54:00
3:54 PM,57.9,50.0,75,29.80,10.0,SSE,11.5,20.7,N/A,,Overcast,160,2013-12-05 20:54:00
4:54 PM,59.0,51.1,75,29.81,10.0,South,17.3,25.3,N/A,,Overcast,190,2013-12-05 21:54:00
5:54 PM,59.0,51.1,75,29.80,10.0,South,12.7,23.0,N/A,,Overcast,180,2013-12-05 22:54:00
6:54 PM,57.9,51.1,78,29.85,10.0,WNW,12.7,-,0.00,Rain,Light Rain,290,2013-12-05 23:54:00
7:07 PM,57.2,51.8,82,29.87,10.0,NW,12.7,-,0.00,Rain,Light Rain,310,2013-12-06 00:07:00
7:38 PM,51.8,42.8,71,29.91,10.0,West,12.7,26.5,0.00,,Overcast,280,2013-12-06 00:38:00
7:54 PM,51.1,41.0,68,29.91,10.0,West,12.7,-,0.00,Rain,Light Rain,280,2013-12-06 00:54:00
8:54 PM,48.0,43.0,83,29.94,9.0,WNW,9.2,-,0.01,Rain,Light Rain,290,2013-12-06 01:54:00
9:07 PM,46.4,42.8,87,29.95,8.0,WNW,9.2,-,0.00,Rain,Light Rain,300,2013-12-06 02:07:00
9:25 PM,46.4,42.8,87,29.94,5.0,NW,6.9,16.1,0.00,Rain,Light Rain,310,2013-12-06 02:25:00
9:54 PM,46.0,42.1,86,29.95,7.0,WNW,10.4,-,0.00,Rain,Light Rain,300,2013-12-06 02:54:00
10:19 PM,44.6,41.0,87,29.97,10.0,WNW,8.1,-,0.00,,Overcast,300,2013-12-06 03:19:00
10:27 PM,44.6,41.0,87,29.98,9.0,WNW,8.1,-,0.00,Rain,Light Rain,300,2013-12-06 03:27:00
10:54 PM,43.0,39.0,86,29.98,5.0,WNW,11.5,-,0.01,Rain,Light Rain,300,2013-12-06 03:54:00
11:25 PM,42.8,37.4,81,30.00,8.0,WNW,12.7,-,0.02,Rain,Light Rain,300,2013-12-06 04:25:00
11:54 PM,41.0,37.0,86,29.99,10.0,WNW,8.1,-,0.02,Rain,Light Rain,300,2013-12-06 04:54:00